Regional Weather Roundup
Issued by NWS Newport/Morehead, NC

Current Version | Previous Version | Graphics & Text | Print | Product List | Glossary Off
Versions: 1 2 3 4 5 6 7 8 9 10 11 12 13 14 15 16 17 18 19 20 21 22 23 24 25 26 27 28 29 30 31 32 33 34 35 36 37 38 39 40 41 42 43 44 45 46 47 48 49 50

000
ASUS42 KMHX 271026
RWRMHX
WEATHER ROUNDUP FOR EASTERN NORTH CAROLINA
NATIONAL WEATHER SERVICE NEWPORT/MOREHEAD CITY NC
600 AM EDT SAT MAY 27 2017

NOTE: "FAIR" INDICATES FEW OR NO CLOUDS BELOW 12,000 FEET
WITH NO SIGNIFICANT WEATHER AND/OR OBSTRUCTIONS TO VISIBILITY

NCZ015>017-031-032-045>047-102-103-271100-
NORTH COAST

CITY           SKY/WX    TMP DP  RH WIND       PRES   REMARKS
EDENTON        CLEAR     69  61  74 CALM      29.95R
ELIZABETH CITY CLEAR     63  61  93 SW7       29.94R
KITTY HAWK     SUNNY     68  61  77 CALM      29.93R
MANTEO         CLEAR     68  62  81 W7        29.95R

$$

NCZ045>047-081-094-103-104-271100-
CENTRAL COAST

CITY           SKY/WX    TMP DP  RH WIND       PRES   REMARKS
FRISCO         CLEAR     71  65  81 W6        29.95R HAZE

$$

NCZ095-097-098-100-101-271100-
SOUTHERN COAST

CITY           SKY/WX    TMP DP  RH WIND       PRES   REMARKS
BEAUFORT       CLEAR     70  64  81 CALM      29.97R
CEDAR ISLAND   NOT AVBL
JACKSONVILLE   CLEAR     63  60  90 W3        29.97R
PINEY ISLAND   SUNNY    N/A N/A N/A SW7       29.96R
WILMINGTON     CLEAR     62  60  93 CALM      29.98R


$$

NCZ011>013-027>030-043-044-078>080-089-090>093-098-271100-
COASTAL PLAIN

CITY           SKY/WX    TMP DP  RH WIND       PRES   REMARKS
AHOSKIE        NOT AVBL
CLINTON        CLEAR     60  59  96 CALM      29.97S
ELIZABETHTOWN  CLEAR     63  58  85 S3        29.97S
GOLDSBORO      NOT AVBL
GREENVILLE     CLEAR     63  59  88 SW3       29.97S
HAVELOCK       CLEAR     63  59  87 CALM      29.98R
KENANSVILLE    CLEAR     57  55  94 CALM      29.97R
KINSTON        CLEAR     60  58  92 CALM      29.96S
NEW BERN       CLEAR     63  60  90 SW3       29.98R
RICHLANDS      CLEAR     60  58  92 CALM      29.98R
ROCKY MOUNT    CLEAR     60  59  96 CALM      29.94S
WASHINGTON     CLEAR     62  58  84 CALM      29.95S
WHITEVILLE     CLEAR     62  58  88 CALM      29.98R

$$

AMZ130-135-150-152-154-156-158-170-250-252-270-ANZ085-086-088-633-658-670-271100-
MARINE OBSERVATIONS

STATION/POSITION TIME  TEMP    WIND        PRES    WAVE   SWELL
                       AIR SEA DIR/SP/G            HT/PER HT/PER
                 (UTC) (F)     (DEG/KT/KT) (MB)    (FT/S) (FT/S)
CHESAPEAKE LIGHT NOT AVBL
64 E VA BEACH    0950   65 62  230/  2/  4 1013.9    3/ 7   3/ 7
DUCK             1000   70 63  230/  7/ 12 1013.4
2 E DUCK         1000      63                N/A     1/ 8
OREGON INLET     1000   71 68  230/ 10/ 12 1013.7
13E OREGON INLT  0948      66                N/A     3/ 6   2/ 6
HATTERAS CG      1000   71 73  240/  5/  7 1014.0
DIAMOND BUOY     0950   76 77  260/ 10/ 12 1014.1    5/ 6   3/ 6
CAPE LOOKOUT     1000   72     280/  8/  8 1014.4
BEAUFORT LAB     1000   70 71  290/  2/  4 1014.0
30 SE NEW RVR IN 1008   75 78  280/ 12/ 16 1015.0
30 SE NEW RVR IN 1013      78                N/A     4/ 6
27 SE WRIGHTSVLE 1008   74 76  240/ 10/ 14 1014.5
5 SE WRIGHTSVLE  1008   72 74  260/  8/ 12 1015.1
225 S CAPE HAT   0950   75 77  280/ 10/ 12 1016.6    4/ 7   3/ 7
41 SE CHARLESTON 1010   74 74  240/ 12/ 14 1016.0

$$




USA.gov is the U.S. government's official web portal to all federal, state and local government web resources and services.